Find INTELSAT IV F2

NORAD ID: 4881 Int'l Des: 1971-006 Owner: INTEL Country: I-INT operational
HEOCIRCULAR

Live Position

Loading 3D Globe...

About INTELSAT IV F2

Description loading...

Upcoming Passes

Passes for default location (London). Set your location on the main map for personalized predictions.

Altitude History

Loading altitude history...

Two-Line Element Set

1 4881U 71006A 26106.81050169 -.00000060 00000-0 00000+0 0 9996
2 4881 4.5040 277.1292 0013538 95.0284 148.8835 0.98838465120892
Epoch: Apr 16, 2026 • Age: 17 hours

Current Status

Altitude 36149.3 km
Velocity 3.06 km/s
Sub-Earth Point 3.05°N, 20.82°E
Type communications

Most Searched